Location: Chanteloup
(48.8560°N, 2.7390°E)
Time: 22:58:26
(UTC+00:00)

Cosmos 2322 Rocket - Pass Details

Date: 05 June 2022
Orbit: 833 x 851 km, 71.0° (Epoch: 06 July)

Event Time Altitude Azimuth Distance (km) Brightness Sun altitude
Rises 03:03:42 0° 335° (NNW) 3,396 5.6 -6.3°
Reaches altitude 10° 03:07:27 10° 360° (N) 2,462 5.3 -5.9°
Maximum altitude 03:10:24 14° 32° (NNE) 2,174 5.8 -5.5°
Drops below altitude 10° 03:13:21 10° 64° (ENE) 2,463 6.1 -5.2°
Sets 03:17:05 0° 88° (E) 3,398 6.2 -4.7°
